NIMBUS 2 DEB

Satellite information

Favourite Embed

Satellite Type and Status

DEBRISIN ORBIT

Key statistics

Satellite NIMBUS 2 DEB at a glance.

Uptime

21547

Days in orbit

Revolutions

≈ 13.7

Per day

Orbit

SSO

Sun Synchronous Orbit

Inclination

100.3

Latest

Satellite identification and parameters

Extended collection of information and parameters for NIMBUS 2 DEB.

Object identification

Identified? True

Debris? True

Object name: NIMBUS 2 DEB

International designator: 1966-040AL

Object number (NORAD): 27406

Object ID (CCSDS): 27406

Country: UNITED STATES OF AMERICA (US)

Current information (Y/N): Y

RCS size: SMALL

Orbital parameters

Period: 105.351 minutes

Inclination: 100.308 deg

SMA: 7389.019 km

Apoapsis: 1044.182 km

Periapsis: 977.586 km

RAAN: 142.4946 deg

Eccentricy: 0.0045064

Argument of periapsis: 139.9992 deg

Mean anomaly: 39.3636 deg

Mean motion: 13.66855529 rev/day

Mean motion (dot): 0.00002626 rev/day2

B* drag term: 0.0031841 1/REarth

Two-line elements (TLE)

Creation date: May 11, 2025, 2:40 a.m.

Reference frame: TEME

Reference center: EARTH

Epoch: May 10, 2025, 7:46 p.m. UTC

TLE line 0: 0 NIMBUS 2 DEB

TLE line 1: 1 27406U 66040AL 25130.82386329 .00002626 00000-0 31841-2 0 9992

TLE line 2: 2 27406 100.3080 142.4946 0045064 139.9992 39.3636 13.66855529270339

Live tracking on map

Real-time ground track for satellite NIMBUS 2 DEB.

In-orbit conjunctions

A list of the most updated potential collisions computed for object NIMBUS 2 DEB.

Target Orbit TCA Probability of collision Miss distance Type
COSMOS 1375 DEB LEO 2024-08-29 02:31:29 0.0001051687 78.0 (m) DEBRIS
SL-8 R/B LEO 2024-08-24 19:22:10 0.0001312099 46.0 (m) ROCKET BODY
COSMOS 994 LEO 2024-07-14 23:00:01 0.0001685661 699.0 (m) PAYLOAD
COSMOS 2016 LEO 2024-06-22 22:56:54 0.0001061538 163.0 (m) PAYLOAD

Associated space launch

Nimbus 2, the second in a series of second-generation meteorological research-and-development satellites, added an additional medium-resolution infrared radiometer (MRIR) compared to Nimbus 1.

NIMBUS 2 DEB was lifted into orbit during the mission ‘Thor SLV-2A Agena B | Nimbus 2’, on board a Thor SLV-2A Agena B space rocket.

The launch took place on May 15, 1966, 7:55 a.m. from Space Launch Complex 2E.

For more information about the launch, click the button.

Launch to space Thor SLV-2A Agena B | Nimbus 2
Thor SLV-2A Agena B | Nimbus 2

Agency: N/A

Status: Launch Successful

Launch date: May 15, 1966, 7:55 a.m. UTC

Rocket: Thor SLV-2A Agena B

Launch pad: Space Launch Complex 2E

Location: Vandenberg SFB, CA, USA

...

Latest news about this satellite

There are no fresh news available about this satellite. Check back as we update our databases every day.


Newsletter sign-up

Weekly statistics, charts and insights to help you stay on top of the space industry.